sat.trackr.live / text

‹ back to catalog

STARLINK-33883

NORAD 63781 · 2025-091G

PAYLOAD ACTIVE UNKNOWN

§ Identity

Operator
Country
US
Launch date
2025-05-02
Launch site
AFETR
Launch vehicle
Mass (kg)
RCS (m²)

Purposes: comms

External: N2YO · Heavens-Above · Gunter

§ Orbital elements

Epoch: 2026-09-19T17:11:18.377088Z

Period
94.27 min
Inclination
43.0020°
Eccentricity
0.0001954
Mean motion
15.27596659 rev/d
Perigee alt
481.7 km
Apogee alt
484.3 km
Semi-major
6,861.1 km
B*
4.7545e-4
RAAN
36.9724°
Arg perigee
273.3995°
Mean anomaly
86.6633°
Rev number
7,857

§ Raw data

STARLINK-338831 63781U 25091G   26262.71618492  .00012851  00000+0  47545-3 0  99922 63781  43.0020  36.9724 0001954 273.3995  86.6633 15.27596659 78578

JSON: /api/v1/satellites/63781 · /tle

For live sub-satellite position, see the globe view (requires WebGL).

§ Visibility from observer

Set your observer location to see the next 7 days of passes ≥ 10°. The values pass through the URL so the page stays shareable.

No JS? Fill the form by hand. The geolocation button needs JavaScript.